,,Stat5,,Stat1,,Stat2,,Stat3,,Stat4,,Wind1,,Wind1,
time,status,PA1M_AVG,status,PR1M_SUM,status,RH1M_AVG,status,SR1M_AVG,status,TA1M_AVG,status,W1dAve1m,status,W1sAve1m,
2001-06-28, 00:00:01,VALID,918.895,VALID,0,VALID,96.5987,VALID,0,VALID,20.1915,VALID,250,VALID,0.454603,
2001-06-28, 00:01:00,VALID,918.895,VALID,0,VALID,96.6216,VALID,0,VALID,20.2049,VALID,243,VALID,0.277344,
2001-06-28, 00:02:00,VALID,918.884,VALID,0,VALID,96.6013,VALID,0,VALID,20.2081,VALID,251,VALID,0.228906,
2001-06-28, 00:03:00,VALID,918.872,VALID,0,VALID,96.3469,VALID,0.0169808,VALID,20.1855,VALID,3,VALID,0.366964,
2001-06-28, 00:04:00,VALID,918.882,VALID,0,VALID,95.659,VALID,0,VALID,20.1115,VALID,10,VALID,0.379207,
2001-06-28, 00:05:00,VALID,918.895,VALID,0,VALID,95.926,VALID,-0.0169808,VALID,20.0595,VALID,10,VALID,0.408936,
2001-06-28, 00:06:00,VALID,918.916,VALID,0,VALID,96.2745,VALID,-0.0169808,VALID,20.0667,VALID,10,VALID,0.441723,
2001-06-28, 00:07:00,VALID,918.932,VALID,0,VALID,96.2745,VALID,0,VALID,20.024,VALID,10,VALID,0.480755,
2001-06-28, 00:08:00,VALID,918.942,VALID,0,VALID,96.221,VALID,-0.0169808,VALID,19.9892,VALID,2,VALID,0.512019,
2001-06-28, 00:09:00,VALID,918.959,VALID,0,VALID,96.319,VALID,-0.0339617,VALID,19.9567,VALID,13,VALID,0.704928,
2001-06-28, 00:10:00,VALID,918.978,VALID,0,VALID,96.5606,VALID,-0.0339617,VALID,19.9467,VALID,10,VALID,0.433929,
2001-06-28, 00:11:00,VALID,918.987,VALID,0,VALID,96.7742,VALID,0,VALID,19.9497,VALID,8,VALID,0.740234,
2001-06-28, 00:12:00,VALID,918.986,VALID,0,VALID,96.9281,VALID,0,VALID,19.94,VALID,49,VALID,0.894922,
2001-06-28, 00:13:00,VALID,918.971,VALID,0,VALID,97.335,VALID,-0.0339617,VALID,19.9952,VALID,96,VALID,0.374219,
2001-06-28, 00:14:00,VALID,918.991,VALID,0,VALID,97.3375,VALID,0,VALID,20.0116,VALID,211,VALID,0.429265,
2001-06-28, 00:15:00,VALID,918.992,VALID,0,VALID,97.2956,VALID,-0.0509425,VALID,20.0046,VALID,185,VALID,0.150608,
2001-06-28, 00:16:00,VALID,918.979,VALID,0,VALID,97.2676,VALID,-0.0339617,VALID,20.0175,VALID,116,VALID,0.689286,
2001-06-28, 00:17:00,VALID,919.004,VALID,0,VALID,97.3401,VALID,-0.0509425,VALID,20.0275,VALID,199,VALID,0.664907,
2001-06-28, 00:18:00,VALID,919.021,VALID,0,VALID,97.3375,VALID,-0.0509425,VALID,20.0541,VALID,211,VALID,0.715372,
2001-06-28, 00:19:00,VALID,919.066,VALID,0,VALID,97.3324,VALID,-0.0169808,VALID,20.0434,VALID,207,VALID,1.07973,
2001-06-28, 00:20:00,VALID,919.112,VALID,0,VALID,97.2917,VALID,-0.0339617,VALID,20.0434,VALID,218,VALID,1.22276,
2001-06-28, 00:21:00,VALID,919.163,VALID,0.2,VALID,97.3184,VALID,0,VALID,20.0501,VALID,215,VALID,1.47656,
2001-06-28, 00:22:00,VALID,919.128,VALID,0,VALID,97.3324,VALID,-0.0169808,VALID,20.0178,VALID,246,VALID,1.1729,
2001-06-28, 00:23:00,VALID,919.079,VALID,0,VALID,97.2307,VALID,0,VALID,19.9688,VALID,283,VALID,0.84996,
2001-06-28, 00:24:00,VALID,919.057,VALID,0,VALID,97.232,VALID,-0.0169808,VALID,19.9435,VALID,235,VALID,0.986328,
2001-06-28, 00:25:00,VALID,919.075,VALID,0,VALID,97.3464,VALID,0,VALID,19.947,VALID,237,VALID,0.423353,
2001-06-28, 00:26:00,VALID,919.095,VALID,0.2,VALID,97.2294,VALID,0,VALID,19.8948,VALID,238,VALID,1.15921,
2001-06-28, 00:27:00,VALID,919.116,VALID,0,VALID,97.3006,VALID,-0.0339617,VALID,19.8789,VALID,236,VALID,1.08941,
2001-06-28, 00:28:00,VALID,919.187,VALID,0,VALID,97.4125,VALID,-0.0339617,VALID,19.8496,VALID,227,VALID,1.41758,
2001-06-28, 00:29:00,VALID,919.219,VALID,0,VALID,97.2956,VALID,-0.0679233,VALID,19.7852,VALID,222,VALID,1.67422,
2001-06-28, 00:30:00,VALID,919.216,VALID,0,VALID,97.396,VALID,-0.0509425,VALID,19.7268,VALID,259,VALID,0.876002,
2001-06-28, 00:31:00,VALID,919.232,VALID,0,VALID,97.3757,VALID,-0.0339617,VALID,19.6622,VALID,244,VALID,1.16326,
2001-06-28, 00:32:00,VALID,919.334,VALID,0.4,VALID,97.4952,VALID,-0.0339617,VALID,19.6143,VALID,253,VALID,0.735937,
2001-06-28, 00:33:00,VALID,919.345,VALID,0.8,VALID,97.8118,VALID,-0.0679233,VALID,19.6113,VALID,332,VALID,0.831731,
2001-06-28, 00:34:00,VALID,919.299,VALID,0.8,VALID,98.0293,VALID,-0.0339617,VALID,19.6302,VALID,260,VALID,0.38528,
2001-06-28, 00:35:00,VALID,919.275,VALID,0.8,VALID,98.0623,VALID,-0.0169808,VALID,19.6043,VALID,212,VALID,0.68051,
2001-06-28, 00:36:00,VALID,919.287,VALID,0.8,VALID,98.0089,VALID,-0.0339617,VALID,19.5492,VALID,232,VALID,1.72808,
2001-06-28, 00:37:00,VALID,919.268,VALID,0.6,VALID,97.8284,VALID,-0.0169808,VALID,19.4294,VALID,244,VALID,1.54123,
2001-06-28, 00:38:00,VALID,919.238,VALID,0.6,VALID,97.822,VALID,-0.0169808,VALID,19.3201,VALID,225,VALID,1.12454,
2001-06-28, 00:39:00,VALID,919.239,VALID,0.6,VALID,97.9263,VALID,-0.0169808,VALID,19.2322,VALID,251,VALID,1.60346,
2001-06-28, 00:40:00,VALID,919.217,VALID,0.4,VALID,98.0954,VALID,-0.0339617,VALID,19.2075,VALID,220,VALID,1.3099,
2001-06-28, 00:41:00,VALID,919.225,VALID,0.2,VALID,98.2912,VALID,0,VALID,19.1976,VALID,117,VALID,0.748598,
2001-06-28, 00:42:00,VALID,919.227,VALID,0.4,VALID,98.3205,VALID,-0.0339617,VALID,19.1556,VALID,247,VALID,1.67588,
2001-06-28, 00:43:00,VALID,919.244,VALID,0.2,VALID,98.3624,VALID,-0.0339617,VALID,19.1072,VALID,235,VALID,0.871429,
2001-06-28, 00:44:00,VALID,919.238,VALID,0.4,VALID,98.3993,VALID,-0.0169808,VALID,19.0652,VALID,230,VALID,1.48242,
2001-06-28, 00:45:00,VALID,919.222,VALID,0.2,VALID,98.4654,VALID,-0.0169808,VALID,19.0428,VALID,240,VALID,1.22734,
2001-06-28, 00:46:00,VALID,919.25,VALID,0,VALID,98.5392,VALID,0,VALID,19.0036,VALID,235,VALID,1.64531,
2001-06-28, 00:47:00,VALID,919.25,VALID,0.2,VALID,98.5773,VALID,-0.0169808,VALID,18.9745,VALID,200,VALID,2.26288,
2001-06-28, 00:48:00,VALID,919.262,VALID,0.4,VALID,98.6269,VALID,-0.0339617,VALID,18.9651,VALID,236,VALID,1.23459,
2001-06-28, 00:49:00,VALID,919.237,VALID,0.2,VALID,98.6943,VALID,0,VALID,18.9524,VALID,233,VALID,0.889509,
2001-06-28, 00:50:00,VALID,919.248,VALID,0,VALID,98.7554,VALID,0,VALID,18.9549,VALID,216,VALID,1,
2001-06-28, 00:51:00,VALID,919.245,VALID,0.2,VALID,98.7782,VALID,-0.0339617,VALID,18.946,VALID,218,VALID,1.75633,
2001-06-28, 00:52:00,VALID,919.242,VALID,0.2,VALID,98.7503,VALID,-0.0169808,VALID,18.9169,VALID,213,VALID,1.94932,
2001-06-28, 00:53:00,VALID,919.228,VALID,0.2,VALID,98.7312,VALID,0,VALID,18.8714,VALID,216,VALID,1.72716,
2001-06-28, 00:54:00,VALID,919.219,VALID,0.2,VALID,98.6918,VALID,0,VALID,18.8133,VALID,230,VALID,1.59107,
2001-06-28, 00:55:00,VALID,919.199,VALID,0,VALID,98.6752,VALID,-0.0169808,VALID,18.7587,VALID,236,VALID,1.77015,
2001-06-28, 00:56:00,VALID,919.191,VALID,0.2,VALID,98.6435,VALID,-0.0509425,VALID,18.7072,VALID,210,VALID,1.6889,
2001-06-28, 00:57:00,VALID,919.178,VALID,0.2,VALID,98.6053,VALID,0,VALID,18.6489,VALID,223,VALID,1.92637,
2001-06-28, 00:58:00,VALID,919.146,VALID,0,VALID,98.6613,VALID,-0.0169808,VALID,18.63,VALID,214,VALID,1.13387,
2001-06-28, 00:59:00,VALID,919.151,VALID,0.2,VALID,98.6485,VALID,-0.0169808,VALID,18.5977,VALID,211,VALID,1.66786,
2001-06-28, 01:00:00,VALID,919.138,VALID,0,VALID,98.5761,VALID,-0.0509425,VALID,18.5522,VALID,213,VALID,1.72701,
2001-06-28, 01:01:00,VALID,919.139,VALID,0,VALID,98.5913,VALID,-0.0509425,VALID,18.5269,VALID,234,VALID,2.11777,
2001-06-28, 01:02:00,VALID,919.124,VALID,0,VALID,98.5481,VALID,-0.0509425,VALID,18.4874,VALID,238,VALID,2.13047,
2001-06-28, 01:03:00,VALID,919.137,VALID,0.2,VALID,98.5036,VALID,-0.0339617,VALID,18.4881,VALID,219,VALID,2.07372,
2001-06-28, 01:04:00,VALID,919.122,VALID,0,VALID,98.543,VALID,-0.0679233,VALID,18.4946,VALID,231,VALID,0.941306,
2001-06-28, 01:05:00,VALID,919.11,VALID,0,VALID,98.5811,VALID,-0.0339617,VALID,18.4943,VALID,192,VALID,0.872991,
2001-06-28, 01:06:00,VALID,919.115,VALID,0,VALID,98.6447,VALID,-0.0169808,VALID,18.5038,VALID,236,VALID,0.442508,
2001-06-28, 01:07:00,VALID,919.112,VALID,0,VALID,98.6702,VALID,-0.0169808,VALID,18.4971,VALID,251,VALID,0.621505,
2001-06-28, 01:08:00,VALID,919.129,VALID,0,VALID,98.6549,VALID,-0.0169808,VALID,18.501,VALID,231,VALID,2.08573,
2001-06-28, 01:09:00,VALID,919.113,VALID,0,VALID,98.6218,VALID,-0.0169808,VALID,18.4782,VALID,220,VALID,1.00998,
2001-06-28, 01:10:00,VALID,919.123,VALID,0.2,VALID,98.6231,VALID,-0.0339617,VALID,18.4784,VALID,188,VALID,1.24653,
2001-06-28, 01:11:00,VALID,919.127,VALID,0,VALID,98.5837,VALID,-0.0339617,VALID,18.4526,VALID,230,VALID,0.894531,
2001-06-28, 01:12:00,VALID,919.104,VALID,0,VALID,98.5468,VALID,-0.0339617,VALID,18.4168,VALID,208,VALID,1.24662,
2001-06-28, 01:13:00,VALID,919.091,VALID,0.2,VALID,98.5315,VALID,-0.0169808,VALID,18.4141,VALID,211,VALID,1.59595,
2001-06-28, 01:14:00,VALID,919.098,VALID,0,VALID,98.4527,VALID,-0.0169808,VALID,18.3975,VALID,222,VALID,1.54307,
2001-06-28, 01:15:00,VALID,919.093,VALID,0,VALID,98.4489,VALID,0,VALID,18.391,VALID,199,VALID,1.09615,
2001-06-28, 01:16:00,VALID,919.076,VALID,0,VALID,98.3561,VALID,-0.0339617,VALID,18.3719,VALID,226,VALID,2.36295,
2001-06-28, 01:17:00,VALID,919.026,VALID,0.2,VALID,98.1742,VALID,0,VALID,18.3783,VALID,214,VALID,2.07188,
2001-06-28, 01:18:00,VALID,919.019,VALID,0,VALID,98.1552,VALID,-0.0339617,VALID,18.3654,VALID,194,VALID,1.53184,
2001-06-28, 01:19:00,VALID,918.996,VALID,0,VALID,98.0738,VALID,0,VALID,18.3393,VALID,200,VALID,1.44863,
2001-06-28, 01:20:00,VALID,918.975,VALID,0,VALID,97.9898,VALID,-0.0509425,VALID,18.3331,VALID,226,VALID,1.68898,
2001-06-28, 01:21:00,VALID,918.974,VALID,0.2,VALID,97.9631,VALID,-0.0509425,VALID,18.3398,VALID,225,VALID,1.35091,
2001-06-28, 01:22:00,VALID,918.964,VALID,0,VALID,97.8907,VALID,0,VALID,18.3403,VALID,197,VALID,2.18438,
2001-06-28, 01:23:00,VALID,918.947,VALID,0,VALID,97.8741,VALID,0,VALID,18.3172,VALID,224,VALID,1.01457,
2001-06-28, 01:24:00,VALID,918.918,VALID,0,VALID,97.9339,VALID,-0.0169808,VALID,18.3041,VALID,231,VALID,1.26774,
2001-06-28, 01:25:00,VALID,918.898,VALID,0,VALID,97.8055,VALID,-0.0169808,VALID,18.2909,VALID,236,VALID,2.02083,
2001-06-28, 01:26:00,VALID,918.894,VALID,0,VALID,97.6948,VALID,0,VALID,18.3204,VALID,204,VALID,2.34175,
2001-06-28, 01:27:00,VALID,918.874,VALID,0,VALID,97.7927,VALID,-0.0169808,VALID,18.3101,VALID,203,VALID,0.792411,
2001-06-28, 01:28:00,VALID,918.84,VALID,0,VALID,97.9085,VALID,0,VALID,18.3075,VALID,224,VALID,1.14001,
2001-06-28, 01:29:00,VALID,918.807,VALID,0,VALID,98.0471,VALID,-0.0339617,VALID,18.3013,VALID,238,VALID,0.765625,
2001-06-28, 01:30:00,VALID,918.778,VALID,0,VALID,98.0344,VALID,0,VALID,18.2819,VALID,236,VALID,1.45684,
2001-06-28, 01:31:00,VALID,918.726,VALID,0,VALID,98.0013,VALID,-0.0509425,VALID,18.2658,VALID,248,VALID,0.749578,
2001-06-28, 01:32:00,VALID,918.701,VALID,0,VALID,98.0636,VALID,-0.0509425,VALID,18.2625,VALID,246,VALID,0.984375,
2001-06-28, 01:33:00,VALID,918.69,VALID,0,VALID,98.1043,VALID,-0.0679233,VALID,18.2462,VALID,242,VALID,0.895182,
2001-06-28, 01:34:00,VALID,918.685,VALID,0,VALID,98.0967,VALID,-0.0509425,VALID,18.2397,VALID,237,VALID,1.29609,
2001-06-28, 01:35:00,VALID,918.655,VALID,0,VALID,98.0674,VALID,-0.0169808,VALID,18.2499,VALID,227,VALID,1.20059,
2001-06-28, 01:36:00,VALID,918.655,VALID,0,VALID,98.0038,VALID,-0.0169808,VALID,18.2462,VALID,218,VALID,1.23938,
2001-06-28, 01:37:00,VALID,918.643,VALID,0,VALID,97.7559,VALID,-0.0169808,VALID,18.263,VALID,242,VALID,1.53285,
2001-06-28, 01:38:00,VALID,918.645,VALID,0,VALID,97.7012,VALID,0,VALID,18.2628,VALID,221,VALID,1.19777,
2001-06-28, 01:39:00,VALID,918.647,VALID,0,VALID,97.6923,VALID,0,VALID,18.2501,VALID,230,VALID,0.83774,
2001-06-28, 01:40:00,VALID,918.647,VALID,0,VALID,97.6109,VALID,0,VALID,18.2335,VALID,234,VALID,1.28865,
2001-06-28, 01:41:00,VALID,918.655,VALID,0,VALID,97.6122,VALID,0,VALID,18.2273,VALID,238,VALID,1.17002,
2001-06-28, 01:42:00,VALID,918.645,VALID,0.2,VALID,97.5588,VALID,-0.0169808,VALID,18.2176,VALID,242,VALID,1.18381,
2001-06-28, 01:43:00,VALID,918.627,VALID,0,VALID,97.5257,VALID,0,VALID,18.2307,VALID,243,VALID,1.13954,
2001-06-28, 01:44:00,VALID,918.637,VALID,0,VALID,97.527,VALID,-0.0169808,VALID,18.2141,VALID,235,VALID,0.912684,
2001-06-28, 01:45:00,VALID,918.621,VALID,0,VALID,97.6198,VALID,-0.0169808,VALID,18.2143,VALID,245,VALID,0.634713,
2001-06-28, 01:46:00,VALID,918.607,VALID,0,VALID,97.7266,VALID,0,VALID,18.2012,VALID,229,VALID,0.536859,
2001-06-28, 01:47:00,VALID,918.595,VALID,0,VALID,97.7991,VALID,-0.0169808,VALID,18.1885,VALID,241,VALID,0.886018,
2001-06-28, 01:48:00,VALID,918.585,VALID,0,VALID,97.8729,VALID,-0.0509425,VALID,18.185,VALID,245,VALID,1.02564,
2001-06-28, 01:49:00,VALID,918.56,VALID,0,VALID,97.6427,VALID,-0.0339617,VALID,18.2148,VALID,244,VALID,2.34799,
2001-06-28, 01:50:00,VALID,918.542,VALID,0,VALID,97.3515,VALID,-0.0169808,VALID,18.2891,VALID,245,VALID,1.57422,
2001-06-28, 01:51:00,VALID,918.535,VALID,0,VALID,97.2193,VALID,0,VALID,18.2987,VALID,276,VALID,0.912695,
2001-06-28, 01:52:00,VALID,918.542,VALID,0,VALID,97.3718,VALID,-0.0339617,VALID,18.2692,VALID,251,VALID,0.625977,
2001-06-28, 01:53:00,VALID,918.543,VALID,0,VALID,97.5384,VALID,0,VALID,18.2533,VALID,253,VALID,0.333404,
2001-06-28, 01:54:00,VALID,918.544,VALID,0,VALID,97.7063,VALID,0,VALID,18.2404,VALID,272,VALID,0.233941,
2001-06-28, 01:55:00,VALID,918.525,VALID,0,VALID,97.8945,VALID,0,VALID,18.2273,VALID,357,VALID,0.341295,
2001-06-28, 01:56:00,VALID,918.499,VALID,0,VALID,98.0305,VALID,-0.0169808,VALID,18.2243,VALID,300,VALID,0.357686,
2001-06-28, 01:57:00,VALID,918.498,VALID,0,VALID,98.1005,VALID,-0.0509425,VALID,18.1947,VALID,245,VALID,0.581926,
2001-06-28, 01:58:00,VALID,918.486,VALID,0,VALID,98.1399,VALID,-0.0339617,VALID,18.186,VALID,260,VALID,0.704527,
2001-06-28, 01:59:00,VALID,918.479,VALID,0,VALID,98.1882,VALID,-0.0679233,VALID,18.1629,VALID,258,VALID,0.660857,
2001-06-28, 02:00:00,VALID,918.464,VALID,0,VALID,98.2594,VALID,-0.0169808,VALID,18.1629,VALID,241,VALID,0.773884,
2001-06-28, 02:01:00,VALID,918.443,VALID,0,VALID,98.3332,VALID,-0.0509425,VALID,18.1564,VALID,237,VALID,0.886102,
2001-06-28, 02:02:00,VALID,918.425,VALID,0,VALID,98.2543,VALID,-0.0169808,VALID,18.1601,VALID,242,VALID,2.0649,
2001-06-28, 02:03:00,VALID,918.406,VALID,0,VALID,97.986,VALID,-0.0339617,VALID,18.221,VALID,246,VALID,1.74551,
2001-06-28, 02:04:00,VALID,918.387,VALID,0,VALID,97.8538,VALID,-0.0679233,VALID,18.2697,VALID,274,VALID,0.693412,
2001-06-28, 02:05:00,VALID,918.39,VALID,0,VALID,97.8907,VALID,-0.0169808,VALID,18.2598,VALID,292,VALID,0.548353,
2001-06-28, 02:06:00,VALID,918.402,VALID,0,VALID,97.9403,VALID,-0.0679233,VALID,18.263,VALID,237,VALID,0.674479,
2001-06-28, 02:07:00,VALID,918.428,VALID,0,VALID,98.0026,VALID,0,VALID,18.2535,VALID,313,VALID,0.783789,
2001-06-28, 02:08:00,VALID,918.419,VALID,0,VALID,98.0026,VALID,-0.0169808,VALID,18.2436,VALID,299,VALID,0.648438,
2001-06-28, 02:09:00,VALID,918.423,VALID,0,VALID,98.1081,VALID,-0.0169808,VALID,18.2632,VALID,326,VALID,0.263021,
2001-06-28, 02:10:00,VALID,918.417,VALID,0.2,VALID,98.1666,VALID,0,VALID,18.2667,VALID,222,VALID,0.39984,
2001-06-28, 02:11:00,VALID,918.405,VALID,0,VALID,98.2175,VALID,-0.0339617,VALID,18.2466,VALID,247,VALID,0.453571,
2001-06-28, 02:12:00,VALID,918.432,VALID,0,VALID,98.2989,VALID,-0.0509425,VALID,18.2499,VALID,346,VALID,0.122396,
2001-06-28, 02:13:00,VALID,918.451,VALID,0,VALID,98.3395,VALID,-0.0339617,VALID,18.2369,VALID,32,VALID,0.0505757,
2001-06-28, 02:14:00,VALID,918.464,VALID,0,VALID,98.3764,VALID,-0.0339617,VALID,18.2374,VALID,273,VALID,0.248355,
2001-06-28, 02:15:00,VALID,918.461,VALID,0,VALID,98.3637,VALID,-0.0169808,VALID,18.2088,VALID,263,VALID,0.411675,
2001-06-28, 02:16:00,VALID,918.436,VALID,0,VALID,98.4425,VALID,-0.0169808,VALID,18.2058,VALID,321,VALID,0.186198,
2001-06-28, 02:17:00,VALID,918.434,VALID,0,VALID,98.5137,VALID,-0.0339617,VALID,18.2249,VALID,60,VALID,0.202436,
2001-06-28, 02:18:00,VALID,918.436,VALID,0,VALID,98.5722,VALID,-0.0169808,VALID,18.2243,VALID,288,VALID,0.354307,
2001-06-28, 02:19:00,VALID,918.417,VALID,0,VALID,98.5163,VALID,-0.0339617,VALID,18.1989,VALID,242,VALID,0.526643,
2001-06-28, 02:20:00,VALID,918.406,VALID,0.2,VALID,98.501,VALID,-0.0509425,VALID,18.1793,VALID,239,VALID,0.734976,
2001-06-28, 02:21:00,VALID,918.411,VALID,0,VALID,98.5748,VALID,-0.0339617,VALID,18.1926,VALID,341,VALID,0.732372,
2001-06-28, 02:22:00,VALID,918.408,VALID,0,VALID,98.6943,VALID,-0.0339617,VALID,18.2243,VALID,14,VALID,0.571205,
2001-06-28, 02:23:00,VALID,918.421,VALID,0,VALID,98.7287,VALID,-0.0169808,VALID,18.2473,VALID,25,VALID,0.294727,
2001-06-28, 02:24:00,VALID,918.438,VALID,0,VALID,98.7032,VALID,-0.0169808,VALID,18.2503,VALID,37,VALID,0.155273,
2001-06-28, 02:25:00,VALID,918.46,VALID,0,VALID,98.6447,VALID,-0.0339617,VALID,18.2441,VALID,85,VALID,0.395312,
2001-06-28, 02:26:00,VALID,918.443,VALID,0,VALID,98.6231,VALID,-0.0339617,VALID,18.2083,VALID,91,VALID,0.361698,
2001-06-28, 02:27:00,VALID,918.439,VALID,0,VALID,98.7007,VALID,-0.0169808,VALID,18.2249,VALID,73,VALID,0.0863715,
2001-06-28, 02:28:00,VALID,918.451,VALID,0,VALID,98.7439,VALID,-0.0339617,VALID,18.2413,VALID,21,VALID,0.3625,
2001-06-28, 02:29:00,VALID,918.447,VALID,0,VALID,98.8062,VALID,-0.0169808,VALID,18.2766,VALID,319,VALID,0.539907,
2001-06-28, 02:30:00,VALID,918.462,VALID,0,VALID,98.8011,VALID,-0.0679233,VALID,18.2667,VALID,325,VALID,0.279983,
2001-06-28, 02:31:00,VALID,918.447,VALID,0,VALID,98.6549,VALID,-0.0169808,VALID,18.2249,VALID,161,VALID,0.448117,
2001-06-28, 02:32:00,VALID,918.456,VALID,0,VALID,98.674,VALID,0,VALID,18.2118,VALID,224,VALID,0.466346,
2001-06-28, 02:33:00,VALID,918.473,VALID,0,VALID,98.6892,VALID,-0.0339617,VALID,18.2058,VALID,217,VALID,0.10067,
2001-06-28, 02:34:00,VALID,918.471,VALID,0,VALID,98.7312,VALID,-0.0169808,VALID,18.2125,VALID,84,VALID,0.394942,
2001-06-28, 02:35:00,VALID,918.466,VALID,0,VALID,98.791,VALID,-0.0509425,VALID,18.2243,VALID,43,VALID,0.230769,
2001-06-28, 02:36:00,VALID,918.463,VALID,0,VALID,98.8227,VALID,-0.0339617,VALID,18.2406,VALID,44,VALID,0.104883,
2001-06-28, 02:37:00,VALID,918.457,VALID,0,VALID,98.838,VALID,-0.0339617,VALID,18.2632,VALID,43,VALID,0.191934,
2001-06-28, 02:38:00,VALID,918.445,VALID,0,VALID,98.8062,VALID,-0.0509425,VALID,18.2602,VALID,214,VALID,0.467061,
2001-06-28, 02:39:00,VALID,918.448,VALID,0,VALID,98.8189,VALID,-0.0509425,VALID,18.2565,VALID,278,VALID,0.320095,
2001-06-28, 02:40:00,VALID,918.44,VALID,0,VALID,98.8075,VALID,-0.0339617,VALID,18.2309,VALID,254,VALID,0.404883,
2001-06-28, 02:41:00,VALID,918.435,VALID,0,VALID,98.796,VALID,-0.0339617,VALID,18.2146,VALID,253,VALID,0.0474609,
2001-06-28, 02:42:00,VALID,918.414,VALID,0,VALID,98.8075,VALID,0.0849042,VALID,18.2042,VALID,286,VALID,0.330929,
2001-06-28, 02:43:00,VALID,918.411,VALID,0,VALID,98.8151,VALID,0.0679233,VALID,18.191,VALID,356,VALID,0.261018,
2001-06-28, 02:44:00,VALID,918.421,VALID,0,VALID,98.8456,VALID,0.0679233,VALID,18.1712,VALID,2,VALID,0.23817,
2001-06-28, 02:45:00,VALID,918.422,VALID,0,VALID,98.894,VALID,0.0679233,VALID,18.194,VALID,12,VALID,0.454728,
2001-06-28, 02:46:00,VALID,918.424,VALID,0,VALID,98.9232,VALID,0.0509425,VALID,18.2067,VALID,20,VALID,0.398232,
2001-06-28, 02:47:00,VALID,918.422,VALID,0,VALID,98.9537,VALID,0.101885,VALID,18.2229,VALID,35,VALID,0.437294,
2001-06-28, 02:48:00,VALID,918.433,VALID,0,VALID,98.9397,VALID,0.101885,VALID,18.2226,VALID,33,VALID,0.523872,
2001-06-28, 02:49:00,VALID,918.422,VALID,0,VALID,98.9436,VALID,0.101885,VALID,18.2236,VALID,29,VALID,0.412543,
2001-06-28, 02:50:00,VALID,918.429,VALID,0,VALID,98.9258,VALID,0.0679233,VALID,18.1938,VALID,29,VALID,0.507123,
2001-06-28, 02:51:00,VALID,918.413,VALID,0.2,VALID,98.9296,VALID,0.101885,VALID,18.1943,VALID,28,VALID,0.497677,
2001-06-28, 02:52:00,VALID,918.387,VALID,0,VALID,98.9614,VALID,0.101885,VALID,18.2037,VALID,22,VALID,0.915865,
2001-06-28, 02:53:00,VALID,918.363,VALID,0,VALID,98.9728,VALID,0.0679233,VALID,18.2102,VALID,25,VALID,0.673353,
2001-06-28, 02:54:00,VALID,918.348,VALID,0,VALID,98.9919,VALID,0.101885,VALID,18.2199,VALID,30,VALID,0.85617,
2001-06-28, 02:55:00,VALID,918.341,VALID,0,VALID,99.0059,VALID,0.101885,VALID,18.2166,VALID,20,VALID,0.841741,
2001-06-28, 02:56:00,VALID,918.337,VALID,0,VALID,99.0262,VALID,0.0509425,VALID,18.2395,VALID,20,VALID,0.8625,
2001-06-28, 02:57:00,VALID,918.336,VALID,0,VALID,99.0453,VALID,0,VALID,18.2471,VALID,15,VALID,0.8125,
2001-06-28, 02:58:00,VALID,918.334,VALID,0,VALID,99.0211,VALID,-0.0169808,VALID,18.2374,VALID,344,VALID,0.611719,
2001-06-28, 02:59:00,VALID,918.329,VALID,0,VALID,99.0059,VALID,0,VALID,18.2113,VALID,346,VALID,0.767103,
2001-06-28, 03:00:00,VALID,918.314,VALID,0,VALID,99.0097,VALID,0.0169808,VALID,18.1954,VALID,8,VALID,0.927734,
2001-06-28, 03:01:00,VALID,918.277,VALID,0,VALID,99.0338,VALID,0,VALID,18.192,VALID,24,VALID,0.822768,
2001-06-28, 03:02:00,VALID,918.262,VALID,0,VALID,99.0478,VALID,0,VALID,18.189,VALID,13,VALID,0.668919,
2001-06-28, 03:03:00,VALID,918.255,VALID,0,VALID,99.058,VALID,0,VALID,18.1987,VALID,356,VALID,0.576436,
2001-06-28, 03:04:00,VALID,918.253,VALID,0,VALID,99.0707,VALID,0,VALID,18.1788,VALID,9,VALID,0.748197,
2001-06-28, 03:05:00,VALID,918.245,VALID,0,VALID,99.0669,VALID,0,VALID,18.1892,VALID,11,VALID,0.976963,
2001-06-28, 03:06:00,VALID,918.238,VALID,0,VALID,99.086,VALID,0.0169808,VALID,18.179,VALID,12,VALID,0.894643,
2001-06-28, 03:07:00,VALID,918.221,VALID,0,VALID,99.0961,VALID,0,VALID,18.1855,VALID,20,VALID,1.17599,
2001-06-28, 03:08:00,VALID,918.203,VALID,0,VALID,99.1063,VALID,0,VALID,18.189,VALID,15,VALID,0.924679,
2001-06-28, 03:09:00,VALID,918.175,VALID,0,VALID,99.1089,VALID,0,VALID,18.1825,VALID,14,VALID,0.879297,
2001-06-28, 03:10:00,VALID,918.159,VALID,0,VALID,99.1152,VALID,0,VALID,18.176,VALID,16,VALID,0.796875,
2001-06-28, 03:11:00,VALID,918.139,VALID,0,VALID,99.133,VALID,0,VALID,18.2021,VALID,15,VALID,0.844172,
2001-06-28, 03:12:00,VALID,918.125,VALID,0,VALID,99.1076,VALID,-0.0169808,VALID,18.189,VALID,9,VALID,1.0714,
2001-06-28, 03:13:00,VALID,918.109,VALID,0,VALID,99.1025,VALID,0,VALID,18.1763,VALID,17,VALID,1.24023,
2001-06-28, 03:14:00,VALID,918.087,VALID,0,VALID,99.0911,VALID,0,VALID,18.1564,VALID,9,VALID,1.03125,
2001-06-28, 03:15:00,VALID,918.095,VALID,0,VALID,99.0872,VALID,-0.0169808,VALID,18.1498,VALID,6,VALID,1.09595,
2001-06-28, 03:16:00,VALID,918.086,VALID,0.2,VALID,99.0809,VALID,0,VALID,18.15,VALID,14,VALID,0.86879,
2001-06-28, 03:17:00,VALID,918.084,VALID,0,VALID,99.0847,VALID,0,VALID,18.1537,VALID,355,VALID,0.826116,
2001-06-28, 03:18:00,VALID,918.076,VALID,0,VALID,99.0631,VALID,-0.0339617,VALID,18.1438,VALID,336,VALID,0.636218,
2001-06-28, 03:19:00,VALID,918.05,VALID,0,VALID,99.0707,VALID,0,VALID,18.144,VALID,354,VALID,0.571957,
2001-06-28, 03:20:00,VALID,918.047,VALID,0,VALID,99.1,VALID,0,VALID,18.1661,VALID,8,VALID,0.332031,
2001-06-28, 03:21:00,VALID,918.035,VALID,0,VALID,99.1,VALID,0,VALID,18.1691,VALID,319,VALID,0.453342,
2001-06-28, 03:22:00,VALID,918.046,VALID,0,VALID,99.1,VALID,0,VALID,18.1728,VALID,356,VALID,0.11849,
2001-06-28, 03:23:00,VALID,918.046,VALID,0,VALID,99.1038,VALID,0,VALID,18.176,VALID,348,VALID,0.370404,
2001-06-28, 03:24:00,VALID,918.018,VALID,0,VALID,99.1038,VALID,0,VALID,18.1694,VALID,297,VALID,0.173986,
2001-06-28, 03:25:00,VALID,918.018,VALID,0,VALID,99.0961,VALID,-0.0339617,VALID,18.1661,VALID,18,VALID,0.0500801,
2001-06-28, 03:26:00,VALID,918.035,VALID,0,VALID,99.0961,VALID,-0.0169808,VALID,18.159,VALID,323,VALID,0.278245,
2001-06-28, 03:27:00,VALID,918.055,VALID,0,VALID,99.1076,VALID,-0.0339617,VALID,18.1751,VALID,279,VALID,0.0663061,
2001-06-28, 03:28:00,VALID,918.048,VALID,0,VALID,99.1241,VALID,-0.0169808,VALID,18.1885,VALID,335,VALID,0.216741,
2001-06-28, 03:29:00,VALID,918.048,VALID,0,VALID,99.1241,VALID,0,VALID,18.2049,VALID,330,VALID,0.401563,
2001-06-28, 03:30:00,VALID,918.058,VALID,0,VALID,99.1178,VALID,-0.0169808,VALID,18.1952,VALID,7,VALID,0.951172,
2001-06-28, 03:31:00,VALID,918.065,VALID,0,VALID,99.1279,VALID,0.0169808,VALID,18.2049,VALID,359,VALID,1.06992,
2001-06-28, 03:32:00,VALID,918.064,VALID,0,VALID,99.1267,VALID,0,VALID,18.2049,VALID,2,VALID,0.888302,